Hourly Data Report for November 29, 2017

All times are specified in Local Standard Time (LST). Add 1 hour to adjust for Daylight Saving Time where and when it is observed.

GREENWOOD A
NOVA SCOTIA

44°59'00.000" N
64°55'00.000" W
28.00 m
8202000
71397
YZX

Download Data

Hourly Data (November 2017)
Hourly Data Report for November 29, 2017
Temp Definition
°C
Dew Point Temp Definition
°C
Rel Hum Definition
%
Wind Dir Definition
10's deg

Wind Spd Definition
km/h
Visibility Definition
km
Stn Press Definition
kPa
Hmdx Definition


Wind Chill Definition


Weather Definition


TIME
00:00 -0.2 -2.6 84 21 11 24.1 101.97   -4 Mostly Cloudy
01:00 0.9 -1.4 85 25 7 24.1 101.82     Cloudy
02:00 2.0 -0.7 82 23 15 24.1 101.71     Cloudy
03:00 2.8 0.4 84 22 19 24.1 101.60     Cloudy
04:00 3.7 1.4 85 23 19 24.1 101.44     Cloudy
05:00 4.4 2.6 88 22 22 24.1 101.35     Cloudy
06:00 5.5 3.4 86 23 19 24.1 101.18     Cloudy
07:00 6.1 4.0 86 22 28 24.1 101.06     Mostly Cloudy
08:00 6.9 4.2 83 20 30 24.1 101.00     Mostly Cloudy
09:00 7.2 5.0 86 25 19 24.1 100.96     Cloudy
10:00 8.2 6.0 86 19 15 16.1 100.85     Rain Showers
11:00 9.2 7.1 87 21 20 16.1 100.76     Rain Showers
12:00 9.9 7.8 87 20 20 16.1 100.64     Rain Showers
13:00 9.2 7.1 87 27 24 16.1 100.63     Rain Showers
14:00 8.2 7.2 93 26 15 16.1 100.62     Rain Showers
15:00 8.6 7.1 90 24 9 24.1 100.58     Mostly Cloudy
16:00 8.4 7.2 92 26 9 24.1 100.69     Mostly Cloudy
17:00 7.3 5.7 90 28 15 24.1 100.81     Mainly Clear
18:00 5.7 4.7 93 26 11 24.1 100.82     Mostly Cloudy
19:00 6.2 3.2 81 31 9 24.1 100.91     Mostly Cloudy
20:00 6.6 2.7 76 31 20 24.1 101.04     Mostly Cloudy
21:00 5.0 0.9 75 33 20 24.1 101.23     Cloudy
22:00 4.2 0.7 78 32 22 24.1 101.32     Cloudy
23:00 2.8 0.4 84 35 22 24.1 101.45     Cloudy

Notes on Data Quality.

Legend

  • E = Estimated
  • M = Missing
  • NA = Not Available
  • ‡ = Partner data that is not subject to review by the National Climate Archives
Date modified: